Weather in Kosh-Khabl

Russia / Karachay-Cherkess Republic     44°08′33″N   41°51′11″E
temp.,
°C
wind,
m/s
gust,
m/s
humid.,
%
clouds,
%
prec.,
mm/h
press.,
hPa
HPBL,
m
18 may, wed
wed1800:00+11ssw116998 0.0 101713
03:00+10s227285 0.0 101627
06:00+8s347999 0.0 101696
09:00+15se345412 0.0 1013732
12:00+19ene334715 0.0 10111585
15:00+20ene545063 0.0 10101550
18:00+17e466750 0.0 1009450
21:00+12s22867 0.0 101113
19 may, thu
thu1900:00+10ssw34755 0.0 101143
03:00+8wsw3268100 0.0 101325
06:00+10w259475 0.1 1015279
09:00+9nw5694100 0.3 1017515
12:00+8wnw5785100 0.1 1019746
15:00+8wnw2788100 0.3 1019694
18:00+7nw51091100 0.9 1019800
21:00+7w3991100 2.4 1020526
20 may, fri
fri2000:00+7w2594100 0.1 1020157
03:00+5w7168382 0.1 1021536
06:00+6wsw71384100 0.1 1022615
09:00+10wsw6106797 0.1 10221056
12:00+13wnw7859100 0.8 10211403
15:00+9nw81191100 1.6 1022826
18:00+10w51084100 0.7 10221072
21:00+8wsw41084100 0.8 1023353
21 may, sat
sat2100:00+7ssw368794 0.1 1023112
03:00+5ssw45895 0.1 102271
06:00+6ssw478043 0.0 1021118
09:00+14wsw47527 0.0 10181158
12:00+17wnw56465 0.0 10161664
15:00+19nw5648100 0.0 10131727
18:00+15nw2574100 0.0 1014589
21:00+12s1182100 0.0 101511
22 may, sun
sun2200:00+11ssw477498 0.0 1013113
03:00+9ssw346312 0.0 101244
06:00+10ssw35646 0.0 101176
09:00+16sw235999 0.0 1008157
12:00+21e114218 0.0 1007744
15:00+22n224330 0.0 10051304
18:00+17n366962 0.0 1005336
21:00+12sse228331 0.1 100612